{"data":{"norad_id":61728,"epoch":"2026-09-21T17:55:20.419104Z","epoch_age_seconds":80774,"freshness":"FRESH","line1":"1 61728U 24196X   26264.74676411  .00000630  00000+0  29802-4 0  9995","line2":"2 61728  53.1607 267.8468 0001311  88.3299 271.7854 15.34389961107218","mean_motion":15.34389961,"eccentricity":0.0001311,"inclination_deg":53.1607,"raan_deg":267.8468,"arg_perigee_deg":88.3299,"mean_anomaly_deg":271.7854,"bstar":2.9802e-5,"rev_number":10721,"period_min":93.848372095808,"perigee_km":461.83624032613,"apogee_km":463.62991646069,"semimajor_km":6840.8700783934,"source":"CELESTRAK","updated_at":"2026-09-22T09:00:49.439083Z"}}